Location: Neuvy Saint Sepulchre
(46.5953°N, 1.8122°E)
Time: 09:14:24
(UTC+02:00)

ISS - Pass Details

Date: 16 July 2021
Orbit: 419 x 421 km, 51.6° (Epoch: 04 August)

Event Time Altitude Azimuth Distance (km) Brightness Sun altitude
Rises 23:42:30 0° 259° (W) 2,365 0.4 -15.5°
Reaches altitude 10° 23:44:38 10° 265° (W) 1,502 -0.6 -15.7°
Maximum altitude 23:47:55 50° 342° (NNW) 543 -2.8 -16.0°
Drops below altitude 10° 23:51:14 10° 59° (ENE) 1,506 -0.9 -16.3°
Sets 23:53:23 0° 65° (ENE) 2,371 0.0 -16.5°
